Regional Weather Roundup
Issued by NWS

Home | Current Version | Previous Version | Graphics & Text | Print | Product List | Glossary On
Versions: 1 2 3 4 5 6 7 8 9 10 11 12 13 14 15 16 17 18 19 20 21 22 23 24 25 26 27 28 29 30 31 32 33 34 35 36 37 38 39 40 41 42 43 44 45 46 47 48 49 50
000
ASUS45 KTFX 182204
RWRMT
MONTANA HOURLY WEATHER ROUNDUP
NATIONAL WEATHER SERVICE GREAT FALLS MT
304 PM MST THU DEC 18 2014

NOTE: "FAIR" INDICATES FEW OR NO CLOUDS BELOW 12000 FEET WITH NO
SIGNIFICANT WEATHER AND/OR OBSTRUCTIONS TO VISIBILITY.

* THESE STATIONS ARE NOT UNDER NWS QUALITY CONTROL. THEY DO NOT
   REPORT WEATHER SUCH AS PRECIPITATION OR FOG.

MTZ001>007-043-182300-
WEST OF THE DIVIDE
CITY           SKY/WX    TMP DP  RH WIND       PRES   REMARKS
KALISPELL      CLOUDY    34  30  85 SW3       29.98S
MISSOULA       CLOUDY    34  27  76 CALM      30.02S
BUTTE          CLOUDY    25  19  78 CALM      29.99S
MULLAN PASS    FOG       28  27  96 CALM      29.91F VSB 1
* ESSEX        N/A       33  31  92 N/A        N/A
* LINCOLN      N/A       33  30  89 SW1        N/A
* LOOKOUT PASS N/A       34  32  92 SE2        N/A
* POLSON       N/A       36  35  96 N/A        N/A
* RONAN APT    PTSUNNY   34  32  92 N/A        N/A
* SEELEY LAKE  N/A       34  30  85 N/A        N/A
* THOMP F APT  PTSUNNY   25  23  92 S5         N/A   WCI  19
$$

MTZ008-052>055-182300-
SOUTHWEST MONTANA
CITY           SKY/WX    TMP DP  RH WIND       PRES   REMARKS
BOZEMAN        CLOUDY    32  19  59 CALM      30.01R
DILLON         CLOUDY    30  21  69 S6        30.00S WCI  24
* W YELLOWSTON PTSUNNY   28  23  81 SW2G9      N/A
* THREE FORKS  PTSUNNY   30  28  92 N/A        N/A
* BOULDER HILL N/A       30  14  51 SW9G14     N/A   WCI  22
* MONIDA PASS  N/A       23  23 100 SE16       N/A   WCI  10
* RAYNOLDS PAS N/A       25   8  48 SE14       N/A   WCI  13
* WHITEHALL    N/A       33  21  61 SE2G8      N/A
* WISE RIVER   N/A       22  16  78 E3         N/A
$$

MTZ009>010-012-014-046-048-049-054-182300-
EAST SLOPES AND CENTRAL MONTANA
CITY           SKY/WX    TMP DP  RH WIND       PRES   REMARKS
CUT BANK       PTCLDY    36  28  73 SW8       29.85R WCI  30
GREAT FALLS    PTSUNNY   37  27  67 SW15      29.88F WCI  28
HELENA         PTSUNNY   30  25  82 W5        29.97F WCI  25
* DEARBORN     N/A       41  24  51 S8G16      N/A
* EAST GLACIER N/A       35  27  73 W28G37     N/A   WCI  22
* MONARCH      N/A       33  18  54 SW14G19    N/A   WCI  23
* PENDROY      N/A       38  23  55 SW2        N/A
* ROGERS PASS  N/A       29  25  85 SE16G26    N/A   WCI  17
* SWEET GRASS  N/A       37  29  73 SW10       N/A   WCI  30
$$

MTZ011-013-016-021-035-040-045-047-050-051-182300-
NORTH CENTRAL MONTANA
CITY           SKY/WX    TMP DP  RH WIND       PRES   REMARKS
HAVRE          PTCLDY    37  30  76 W7        29.88R WCI  32
LEWISTOWN      CLOUDY    41  28  60 SW9       29.89S
* N BAR RANCH  PTCLDY    43  19  38 W15       29.89R
* CHESTER      N/A       35  34  96 W1         N/A
* DENTON       N/A       41  23  49 W9         N/A
* GEYSER       N/A       40  22  49 SW16G22    N/A   WCI  32
* J.93S WCI  31
BILLINGS       PTCLDY    37  23  57 SW18G28   29.94S WCI  27
LIVINGSTON     PTCLDY    41  19  41 SW16G26   29.95R
MILES CITY     SUNNY     39  27  62 SW8       29.93S WCI  33
* LAUREL APT   SUNNY     39  16  39 SW14G21    N/A   WCI  31
* ROUNDUP APT  PTCLDY    46  19  34 SW18G23    N/A
* ALZADA       N/A       40  24  53 SW9        N/A   WCI  34
* HYSHAM       N/A       36  18  48 SW4G10     N/A
* LAME DEER    N/A       39  18  43 W9G14      N/A   WCI  33
* REED POINT   N/A       43  21  42 W9         N/A
* ROSCOE HILL  N/A       40   5  23 S9G24      N/A   WCI  34
$$

REGIONAL REPORTS...DAKOTAS
CITY           SKY/WX    TMP DP  RH WIND       PRES   REMARKS
WILLISTON      CLOUDY    28  23  81 S7        29.94F WCI  21
DICKINSON      CLOUDY    32  27  82 W7        29.92S WCI  25
BEACH          SUNNY     36  32  85 SW6       29.92F WCI  31
CROSBY         CLOUDY    25  25 100 S8        29.94F WCI  16
WATFORD CITY   CLOUDY    28  25  89 SW7    UDITH GAP   N/A       40  21  47 W6G12      N/A   WCI  36
* LOMA         N/A       41  32  70 S4         N/A
$$

MTZ017>020-022>027-061-062-182300-
NORTHEAST MONTANA
CITY           SKY/WX    TMP DP  RH WIND       PRES   REMARKS
GLASGOW        SUNNY     34  25  70 CALM      29.90S
GLENDIVE       SUNNY     37  27  67 S9        29.93S WCI  30
JORDAN         SUNNY     45  27  49 SW6       29.89S
SIDNEY         CLOUDY    30  27  89 CALM      29.95F
WOLF POINT     SUNNY     34  27  76 NE5       29.92F WCI  29
* BEAVER HILL  N/A       36  29  76 SW9        N/A   WCI  29
* CIRCLE       N/A       40  31  70 SW1        N/A
* LINDSAY DVD  N/A       38  31  76 SW3        N/A
* NAVAJO       N/A       26  25  96 SW2        N/A
* SACO         N/A       26  23  88 NW6        N/A   WCI  19
$$

MTZ028>042-056>058-182300-
SOUTHCENTRAL AND SOUTHEAST MONTANA
CITY           SKY/WX    TMP DP  RH WIND       PRES   REMARKS
BAKER          PTCLDY    37  30  76 SW8       29   29.93S WCI  21
BISMARCK       CLOUDY    27  21  78 S7        30.03S WCI  19
GRAND FORKS    CLOUDY    19  14  81 S13       30.17F WCI   6
FARGO          CLOUDY    19  14  81 SE12      30.19S WCI   6
BUFFALO SD     SUNNY     43  28  56 W12       29.88R
RAPID CITY     SUNNY     43  28  56 E6        29.97R
$$

REGIONAL REPORTS...WYOMING/IDAHO/WASHINGTON
CITY           SKY/WX    TMP DP  RH WIND       PRES   REMARKS
GILLETTE       SUNNY     37  21  52 SW10      29.96S WCI  30
SHERIDAN       SUNNY     41  23  49 CALM      29.95R
CODY           PTCLDY    27  16  63 CALM      29.97S
YELLOWSTONE LA PTCLDY    25  18  75 W7        30.04F WCI  17
SALMON         CLOUDY    28  18  66 CALM      30.07S
MULLAN PASS    FOG       28  27  96 CALM      29.91S VSB 1
SAND POINT     FOG       34  34 100 CALM      29.98F VSB 2 1/2
SPOKANE        CLOUDY    43  36  76 S6        29.96F

$$



USA.gov is the U.S. government's official web portal to all federal, state and local government web resources and services.